Temp
59 58 60 58 57 58 56 56 57 57 55 57 56 56 52 51 47 45 45 48 50 57 61 56 59 63 63 62 63 61 61 64 61 58 57 55 54 58 59 59 60 62 64 64 64 64 64 63 63 62 61 61 60 60 59 59 58 58 57 57 56 54 54 54 54 55 56 56 57 58 58 58 58 58
59 59 59 58 58 59 57 57 57 55 55 55 56 55 55 52 49 48 45 45 51 52 56 57 57 60 61 64 64 64 61 64 62 60 59 57 56 60 59 58 59 61 61 60 61 63 63 63 62 62 61 61 60 60 59 58 57 57 56 54 53 53 53 54 54 55 55 56 57 57 57 58 58 58
59 58 58 59 57 57 57 57 57 57 56 55 56 55 55 54 51 50 48 43 50 55 51 54 60 60 61 63 62 64 64 64 63 60 58 61 63 62 60 59 58 56 56 56 57 57 59 61 61 61 61 61 60 59 59 57 57 56 54 53 52 52 53 55 54 54 55 55 56 56 57 57 57 58
60 58 58 58 57 57 57 56 57 56 57 57 56 57 56 54 53 51 49 46 47 52 52 54 57 61 59 61 61 61 64 66 63 60 60 63 61 59 59 60 60 58 56 54 54 54 56 59 60 60 60 60 59 58 57 56 55 54 53 53 52 52 53 54 54 54 55 55 55 56 56 56 57 57
61 60 59 59 60 59 57 56 57 57 59 59 56 56 55 54 55 52 50 47 48 51 55 54 56 59 60 59 60 60 60 59 61 62 60 61 56 58 57 57 59 59 57 54 52 52 52 54 55 56 57 56 55 54 54 52 52 53 53 53 52 51 52 52 53 54 54 54 55 55 56 56 56 57
62 59 59 61 60 59 59 57 60 60 59 60 58 58 57 55 55 55 53 49 48 47 51 52 57 58 60 57 61 58 56 56 58 59 60 62 61 60 56 56 57 58 57 56 55 53 52 51 51 52 53 53 50 50 50 50 50 51 51 50 50 50 50 51 52 53 54 54 54 54 55 55 55 55
61 59 58 58 59 60 57 56 57 58 58 59 59 59 58 56 55 57 55 52 47 48 49 52 54 54 57 54 58 60 59 60 61 59 58 59 61 61 58 55 56 57 56 55 55 54 54 52 51 51 51 51 50 50 50 50 49 49 49 49 49 49 49 49 51 52 53 53 54 54 54 53 53 53
62 60 58 58 58 58 56 55 55 56 57 56 56 57 57 57 56 56 54 53 49 48 48 50 54 56 53 56 60 61 60 58 58 58 58 58 58 58 58 56 55 56 56 55 55 54 54 53 52 51 50 50 50 50 50 50 50 49 49 49 49 49 49 48 49 50 51 51 51 52 51 50 51 52
62 61 59 60 59 58 56 55 56 57 56 59 56 56 57 56 56 57 55 53 52 49 48 50 53 54 56 57 56 57 56 56 56 57 56 57 56 55 55 55 56 57 57 56 56 56 55 52 52 52 51 50 50 50 50 50 50 50 49 49 49 49 49 48 48 48 48 48 48 48 48 48 50 51
63 61 61 61 60 59 57 56 56 56 57 58 57 56 55 56 56 55 54 53 51 51 49 49 50 52 53 52 52 55 53 52 52 53 55 54 55 52 51 53 56 56 57 55 56 55 54 55 54 54 52 51 50 50 50 50 50 50 50 49 49 48 48 48 48 47 47 47 47 47 47 48 49 49
64 63 62 60 60 60 59 58 57 56 56 57 55 55 55 55 53 52 51 52 51 51 50 51 51 51 53 52 48 52 54 54 54 51 49 48 52 51 50 49 52 55 55 56 57 56 56 56 56 54 52 52 51 51 51 51 52 52 51 50 49 49 49 49 48 48 47 47 47 47 47 47 47 48
63 63 62 62 62 61 60 58 58 57 56 56 55 55 55 55 54 52 52 51 50 50 50 48 48 49 49 49 50 52 52 50 50 52 49 46 47 48 49 50 49 52 53 52 55 56 55 55 56 56 54 55 54 53 54 55 54 53 52 51 50 49 49 48 48 48 48 47 47 47 47 46 46 46
64 64 64 63 63 62 64 65 63 62 61 57 54 54 55 54 53 52 51 52 49 49 49 48 50 47 47 47 47 45 45 46 47 49 48 46 48 48 48 49 51 52 51 51 51 51 52 52 53 53 53 54 54 54 55 55 55 54 51 50 49 49 48 48 48 48 48 48 48 48 47 47 46 45
62 63 64 65 66 65 65 63 61 57 56 59 57 55 54 53 51 51 50 50 50 50 47 47 47 46 46 46 46 46 46 49 49 47 46 44 46 47 46 47 49 51 50 48 47 49 53 52 52 52 52 53 53 52 53 53 52 51 50 50 50 49 48 48 48 48 47 47 47 47 47 47 47 46
62 62 64 61 63 63 63 61 56 53 52 52 52 53 55 56 51 48 48 48 48 47 47 48 47 45 46 47 47 46 47 48 47 46 45 45 45 43 41 40 45 49 48 47 46 47 51 52 50 51 52 52 52 53 52 52 51 50 50 50 50 49 49 49 49 48 48 47 47 47 47 46 46 46
62 62 62 62 64 61 59 59 56 54 52 50 50 49 49 50 51 51 50 49 47 47 46 46 46 46 46 47 46 46 46 46 46 46 45 44 43 42 41 41 40 47 49 45 44 44 50 53 51 49 51 52 52 54 53 51 50 50 50 49 49 49 49 49 48 48 48 47 47 46 46 46 45 45
63 61 60 61 62 66 64 60 59 56 54 52 50 51 51 51 49 44 44 47 50 49 46 46 46 47 47 46 47 48 47 48 45 45 44 43 43 43 41 42 43 46 49 45 43 43 49 52 50 49 51 51 51 53 52 51 50 50 49 49 49 49 49 48 48 48 47 47 46 46 45 45 45 44
62 61 60 59 60 60 60 59 58 58 56 54 52 51 50 50 51 50 46 45 45 48 48 46 45 48 49 47 47 49 48 47 45 44 43 43 42 42 42 44 45 47 49 45 43 44 48 51 49 48 49 51 51 51 51 50 50 49 49 49 49 48 48 48 48 47 47 46 46 45 45 44 44 44
62 61 62 61 59 59 59 59 59 57 57 56 55 52 51 51 51 51 51 49 48 47 48 48 48 49 49 49 49 49 48 47 46 46 45 44 43 44 45 45 47 47 50 49 45 42 46 49 47 47 48 50 50 51 51 51 50 50 49 49 49 49 48 47 47 47 46 46 45 45 44 44 43 43
62 62 61 60 59 59 59 60 55 57 58 56 55 54 53 52 52 53 56 51 50 52 50 50 50 50 50 49 50 47 46 45 45 47 46 45 44 42 42 41 44 45 49 49 46 43 43 47 45 46 48 48 48 50 50 51 50 49 49 49 49 49 47 47 47 46 46 45 45 44 44 43 43 43
62 62 62 61 60 59 59 57 50 48 56 56 55 54 54 54 54 53 56 51 47 47 47 47 47 46 46 45 43 42 43 44 45 44 41 40 42 40 38 40 42 43 46 48 47 44 42 44 45 44 46 47 47 48 49 49 50 49 49 49 49 48 47 47 47 46 45 45 44 44 44 44 43 44
61 62 62 61 60 59 59 53 49 45 52 55 54 53 53 52 52 52 54 56 50 46 46 46 45 44 43 42 43 43 43 43 45 43 40 43 42 40 40 39 42 44 46 47 48 42 41 44 43 40 44 46 46 47 48 48 49 49 49 49 50 48 48 48 47 46 45 45 44 44 44 44 44 45
61 61 62 60 59 60 58 52 47 45 52 54 54 53 52 51 51 52 52 53 51 48 48 48 48 47 46 48 48 49 47 46 47 45 45 45 43 41 41 42 42 40 42 46 48 41 41 42 42 40 40 40 45 46 47 48 48 48 48 49 49 49 49 48 46 45 45 45 45 45 44 44 43 45
60 60 61 59 51 51 51 49 44 44 47 54 54 53 52 51 50 54 54 54 53 50 49 49 49 48 49 49 49 49 48 48 50 48 47 47 46 44 43 43 43 40 41 46 47 42 43 42 40 46 43 38 38 43 45 46 47 47 48 49 46 48 49 47 45 45 45 44 44 44 44 44 43 44
60 60 61 63 54 49 49 48 44 44 44 49 54 53 52 53 51 51 52 52 53 49 48 48 47 47 48 48 49 48 47 47 49 50 48 48 49 47 45 43 42 42 45 48 48 44 41 43 40 44 43 41 40 41 44 44 46 46 48 47 46 47 46 46 46 46 45 43 43 43 43 43 44 44
61 62 63 63 56 48 48 47 46 44 44 44 51 53 49 49 44 51 51 51 50 48 48 47 47 47 48 49 49 48 47 48 49 50 50 50 50 50 48 46 43 41 42 49 47 47 44 40 40 39 41 40 40 41 41 43 45 46 47 48 47 46 46 46 46 45 45 43 43 42 43 44 44 44
62 63 63 64 56 47 47 46 46 45 44 45 48 46 45 46 43 46 48 48 48 47 47 47 46 46 47 47 48 48 46 47 48 49 49 49 50 50 50 50 49 47 48 49 51 50 48 43 45 40 40 41 39 41 41 40 42 46 46 47 48 48 47 46 45 45 46 44 45 46 45 44 44 44
62 63 61 55 46 43 45 45 45 44 44 47 44 43 43 43 44 47 46 47 47 47 46 45 45 46 47 47 48 48 48 47 47 48 50 49 50 50 49 50 50 50 50 51 51 51 50 47 46 48 46 40 38 38 39 43 44 45 44 47 48 47 47 46 46 47 45 45 46 43 43 42 43 43
54 41 39 39 41 42 42 42 42 43 43 41 42 42 41 46 47 46 46 46 46 45 45 45 45 46 47 48 49 49 48 48 47 48 49 49 49 50 50 49 49 49 50 51 52 53 52 50 49 48 44 41 40 42 42 41 42 44 45 44 43 46 46 48 47 46 46 45 46 47 45 45 44 45
42 41 40 39 41 41 42 45 46 47 47 42 41 41 42 46 46 46 46 46 45 45 45 46 45 46 48 49 50 49 47 45 46 46 47 47 47 48 48 48 48 48 50 52 54 55 54 52 50 47 45 43 42 42 42 42 42 44 46 44 44 46 46 47 46 47 47 46 46 46 49 48 47 47
49 50 49 48 45 48 43 44 46 46 45 44 43 43 44 45 46 47 46 46 45 45 45 46 46 47 48 50 49 45 44 44 45 47 47 47 47 47 48 47 47 47 49 52 54 55 54 51 49 45 44 43 44 43 43 44 43 44 44 45 44 40 44 47 47 46 46 47 48 47 49 48 49 49
53 53 50 50 48 49 47 47 48 48 48 48 47 47 47 47 47 48 49 49 47 47 47 47 47 47 47 47 48 46 45 45 45 47 47 47 47 47 47 46 45 46 47 49 51 52 53 51 48 47 47 47 44 43 43 44 43 43 43 44 44 45 45 45 46 47 48 47 46 46 47 46 45 47
53 52 51 51 52 51 50 49 49 49 49 48 49 49 50 50 48 46 46 45 45 46 45 45 45 46 46 47 48 47 45 45 45 45 46 47 47 48 47 45 46 46 46 46 47 50 50 50 49 48 48 46 45 44 42 40 42 43 42 42 42 42 43 45 46 46 47 46 44 45 45 47 46 46
51 51 50 51 51 51 51 51 50 50 50 50 50 49 46 49 48 47 46 46 46 46 45 45 45 45 45 46 48 47 45 44 45 46 44 46 47 45 45 45 46 47 47 45 45 49 49 50 49 47 46 46 45 43 42 40 37 40 41 41 41 40 42 44 45 45 44 43 44 44 46 44 44 45
51 51 52 52 52 52 52 52 52 51 51 50 50 51 50 48 46 46 47 47 46 46 46 45 46 46 47 47 47 46 45 45 44 44 46 47 47 46 45 45 46 47 47 45 45 47 50 48 46 45 45 42 41 42 41 40 38 39 41 40 40 40 40 43 43 44 44 42 44 43 44 44 41 42
47 52 53 54 55 55 54 53 52 52 52 52 52 51 50 49 47 47 47 47 48 47 47 47 45 47 48 48 47 45 45 43 43 44 44 45 45 45 46 46 47 47 48 48 46 46 47 49 47 43 41 43 42 40 39 40 40 40 38 37 40 39 40 41 42 44 44 43 44 43 41 41 41 40
46 52 53 53 54 54 54 56 55 54 53 53 52 52 51 50 48 48 49 49 48 47 48 48 48 48 49 47 45 43 43 43 43 44 43 43 45 45 45 45 46 48 48 47 47 48 48 47 46 42 40 41 39 36 37 39 39 41 41 38 38 40 39 40 40 41 43 43 43 43 41 41 40 40
50 52 52 52 53 54 55 54 54 53 53 54 55 55 54 52 52 53 53 52 50 47 49 49 48 47 49 45 45 45 45 44 43 42 42 43 43 45 45 45 46 47 47 48 48 49 50 48 45 43 40 37 35 36 36 39 38 38 41 40 37 39 40 38 37 38 41 44 42 42 42 40 39 39
51 51 53 54 54 54 53 54 53 53 53 55 55 54 54 54 55 55 55 54 53 52 52 51 50 50 49 48 46 42 44 42 42 43 43 43 43 44 45 45 45 46 46 46 47 48 49 46 45 43 42 38 36 35 39 37 37 35 39 41 40 38 38 38 37 38 39 40 41 43 42 42 42 40
50 51 53 54 54 55 54 55 55 56 56 56 56 56 56 54 55 56 56 53 54 55 55 54 52 50 49 48 46 46 46 45 44 44 44 44 44 44 45 46 44 44 44 44 44 47 48 45 44 44 43 43 42 44 41 39 38 38 37 39 40 40 38 38 37 36 36 39 39 40 40 41 37 40
52 52 53 54 55 55 54 55 56 57 56 55 57 55 56 57 56 57 57 55 52 53 51 52 51 50 49 48 47 46 42 41 43 44 44 44 42 41 42 41 42 44 41 42 44 45 47 47 46 43 45 45 47 46 39 38 37 37 36 37 39 40 40 39 39 37 36 37 38 40 40 40 40 41
56 55 56 57 56 56 56 56 57 56 56 56 56 56 57 56 57 51 53 50 54 53 53 52 52 49 47 48 48 42 42 40 40 41 41 42 41 42 40 43 42 43 42 40 44 46 49 48 44 44 46 45 44 38 37 36 35 36 37 38 39 39 39 40 40 39 38 37 36 35 36 38 41 38
59 59 60 59 59 58 59 57 58 57 56 57 56 57 55 55 55 54 53 54 54 51 50 47 49 48 46 46 46 43 41 40 41 42 42 42 41 41 40 42 44 44 44 44 46 47 49 49 47 47 46 43 40 41 38 38 37 37 37 36 36 37 40 39 39 40 39 39 38 38 37 36 35 35
59 59 60 59 58 57 58 57 57 56 57 57 56 56 54 52 53 53 53 50 49 48 49 48 47 46 45 46 45 44 41 40 42 42 40 39 42 42 42 42 42 42 43 41 42 44 47 48 50 47 42 39 41 39 37 38 37 36 36 36 37 36 36 38 40 41 41 40 39 38 39 38 38 38
59 58 58 57 56 57 57 57 56 56 56 55 55 54 53 53 50 53 53 51 48 48 46 46 45 46 47 46 46 44 42 43 42 41 40 39 39 40 41 42 40 40 39 42 40 40 42 44 46 47 44 42 42 38 35 36 37 36 36 37 36 37 38 37 35 35 36 36 39 39 38 39 39 39
MSLP
1020.92 1020.92 1020.84 1020.88 1020.92 1020.88 1020.96 1021.00 1021.00 1021.08 1021.20 1021.08 1021.04 1021.12 1021.20 1021.52 1021.92 1021.76 1021.32 1020.88 1020.60 1020.00 1019.84 1020.08 1019.64 1019.56 1019.48 1019.40 1019.24 1019.16 1019.08 1018.96 1018.92 1018.88 1018.80 1018.80 1018.68 1018.48 1018.40 1018.32 1018.16 1017.96 1017.76 1017.60 1017.48 1017.32 1017.20 1017.16 1017.12 1017.08 1017.00 1016.88 1016.76 1016.64 1016.56 1016.44 1016.40 1016.32 1016.28 1016.20 1016.16 1016.12 1016.12 1015.96 1015.80 1015.64 1015.48 1015.36 1015.16 1014.96 1014.88 1014.72 1014.60 1014.52
1020.92 1020.92 1020.84 1020.84 1020.84 1020.80 1020.92 1021.04 1021.04 1021.16 1021.24 1021.24 1021.08 1021.04 1021.04 1021.20 1021.68 1021.84 1022.12 1021.60 1020.84 1020.36 1020.08 1020.08 1020.00 1019.68 1019.60 1019.32 1019.16 1019.08 1018.92 1018.76 1018.72 1018.64 1018.60 1018.56 1018.40 1018.24 1018.12 1017.96 1017.76 1017.64 1017.52 1017.40 1017.20 1017.04 1017.00 1017.00 1016.96 1016.92 1016.76 1016.64 1016.52 1016.44 1016.36 1016.32 1016.28 1016.20 1016.16 1016.16 1016.16 1016.04 1015.96 1015.80 1015.60 1015.52 1015.40 1015.28 1015.08 1014.88 1014.76 1014.64 1014.44 1014.24
1020.88 1020.92 1020.88 1020.80 1020.84 1020.92 1020.96 1020.96 1021.04 1021.04 1021.20 1021.20 1021.08 1021.00 1021.00 1021.04 1021.32 1021.68 1021.88 1022.24 1020.76 1020.40 1020.48 1020.16 1020.00 1019.84 1019.52 1019.32 1019.20 1018.96 1018.76 1018.64 1018.56 1018.48 1018.40 1018.28 1018.08 1017.96 1017.88 1017.68 1017.52 1017.40 1017.24 1017.08 1017.00 1017.00 1016.96 1016.88 1016.80 1016.68 1016.56 1016.44 1016.36 1016.28 1016.20 1016.16 1016.08 1016.04 1016.04 1016.04 1015.96 1015.88 1015.72 1015.48 1015.40 1015.32 1015.24 1015.04 1014.84 1014.64 1014.52 1014.40 1014.32 1014.20
1020.80 1020.84 1020.88 1020.80 1020.80 1020.84 1020.92 1020.96 1021.00 1021.00 1020.96 1020.92 1020.88 1020.80 1020.80 1020.92 1021.12 1021.40 1021.72 1021.84 1021.44 1020.60 1020.40 1020.12 1019.96 1019.72 1019.52 1019.28 1019.08 1018.92 1018.80 1018.56 1018.44 1018.32 1018.20 1018.00 1017.92 1017.88 1017.80 1017.56 1017.36 1017.20 1017.08 1017.00 1016.96 1016.88 1016.84 1016.68 1016.52 1016.40 1016.28 1016.24 1016.20 1016.12 1016.04 1015.92 1015.88 1015.88 1015.84 1015.76 1015.68 1015.64 1015.52 1015.32 1015.20 1015.12 1015.00 1014.92 1014.80 1014.64 1014.44 1014.32 1014.20 1014.08
1020.60 1020.64 1020.68 1020.64 1020.60 1020.60 1020.72 1020.72 1020.80 1020.80 1020.72 1020.72 1020.88 1020.80 1020.72 1020.72 1020.76 1021.04 1021.28 1021.28 1020.96 1020.48 1020.20 1020.12 1019.92 1019.68 1019.44 1019.20 1019.08 1019.00 1018.72 1018.52 1018.36 1018.20 1018.08 1017.96 1017.92 1017.80 1017.64 1017.48 1017.36 1017.20 1017.08 1016.96 1016.84 1016.72 1016.56 1016.40 1016.28 1016.16 1016.08 1016.04 1016.00 1015.92 1015.80 1015.68 1015.60 1015.60 1015.52 1015.44 1015.40 1015.40 1015.32 1015.24 1015.12 1015.00 1014.88 1014.72 1014.60 1014.44 1014.28 1014.12 1014.04 1013.92
1020.36 1020.40 1020.44 1020.32 1020.32 1020.40 1020.52 1020.52 1020.44 1020.44 1020.52 1020.36 1020.48 1020.48 1020.44 1020.44 1020.44 1020.40 1020.60 1020.68 1020.68 1020.64 1020.32 1020.12 1019.88 1019.64 1019.36 1019.28 1019.04 1018.88 1018.64 1018.48 1018.32 1018.20 1018.16 1018.08 1017.96 1017.68 1017.56 1017.48 1017.36 1017.24 1017.00 1016.76 1016.56 1016.40 1016.24 1016.04 1015.96 1015.88 1015.80 1015.80 1015.72 1015.64 1015.48 1015.36 1015.28 1015.28 1015.24 1015.16 1015.08 1015.08 1015.04 1015.00 1014.92 1014.80 1014.72 1014.56 1014.40 1014.28 1014.20 1014.04 1013.96 1013.88
1020.04 1020.20 1020.24 1020.20 1020.12 1020.20 1020.36 1020.40 1020.36 1020.28 1020.28 1020.12 1020.08 1020.04 1019.96 1020.04 1020.08 1020.20 1020.24 1020.40 1020.72 1020.68 1020.44 1020.16 1019.96 1019.60 1019.36 1019.28 1018.96 1018.64 1018.56 1018.52 1018.36 1018.24 1018.20 1018.12 1017.96 1017.72 1017.60 1017.52 1017.40 1017.12 1016.84 1016.60 1016.32 1016.08 1015.84 1015.68 1015.60 1015.56 1015.56 1015.48 1015.40 1015.28 1015.12 1015.00 1014.96 1014.96 1014.88 1014.80 1014.72 1014.68 1014.72 1014.72 1014.68 1014.56 1014.48 1014.40 1014.28 1014.16 1014.08 1014.08 1014.04 1013.96
1019.64 1019.80 1020.00 1020.04 1020.00 1019.96 1020.20 1020.28 1020.32 1020.28 1020.24 1020.24 1020.20 1020.20 1020.08 1020.00 1020.04 1020.00 1020.04 1020.20 1020.40 1020.44 1020.48 1020.16 1020.04 1019.60 1019.40 1019.04 1018.72 1018.56 1018.60 1018.60 1018.48 1018.32 1018.16 1018.08 1018.00 1017.84 1017.68 1017.60 1017.36 1017.00 1016.72 1016.44 1016.12 1015.84 1015.60 1015.36 1015.32 1015.36 1015.28 1015.16 1015.04 1014.96 1014.80 1014.64 1014.60 1014.56 1014.48 1014.40 1014.32 1014.32 1014.44 1014.48 1014.44 1014.36 1014.28 1014.24 1014.16 1014.08 1014.04 1014.00 1013.96 1013.88
1019.24 1019.28 1019.48 1019.60 1019.68 1019.76 1019.92 1020.08 1020.12 1020.16 1020.16 1020.08 1020.12 1020.16 1020.00 1019.92 1019.88 1019.84 1019.92 1020.08 1020.20 1020.36 1020.44 1020.12 1019.72 1019.48 1019.16 1018.76 1018.60 1018.64 1018.72 1018.64 1018.64 1018.40 1018.16 1018.00 1017.96 1017.88 1017.84 1017.64 1017.32 1016.96 1016.60 1016.28 1016.00 1015.68 1015.40 1015.32 1015.24 1015.08 1014.92 1014.80 1014.72 1014.60 1014.44 1014.36 1014.32 1014.20 1014.08 1014.00 1013.96 1014.00 1014.08 1014.12 1014.12 1014.08 1014.00 1013.96 1013.92 1013.88 1013.84 1013.80 1013.72 1013.64
1019.00 1019.04 1019.08 1019.16 1019.32 1019.40 1019.60 1019.72 1019.80 1019.88 1019.88 1019.84 1019.84 1019.88 1019.88 1019.88 1019.84 1019.80 1019.92 1020.04 1020.16 1020.16 1020.04 1019.92 1019.68 1019.32 1019.04 1018.80 1018.80 1018.72 1018.72 1018.80 1018.68 1018.44 1018.16 1018.08 1018.00 1017.96 1017.92 1017.72 1017.32 1016.92 1016.52 1016.20 1015.92 1015.60 1015.40 1015.16 1014.96 1014.72 1014.48 1014.36 1014.32 1014.24 1014.16 1014.08 1013.92 1013.80 1013.72 1013.64 1013.64 1013.72 1013.76 1013.76 1013.68 1013.64 1013.56 1013.56 1013.52 1013.52 1013.48 1013.48 1013.44 1013.36
1018.76 1018.80 1018.84 1018.88 1018.96 1019.08 1019.16 1019.36 1019.48 1019.56 1019.60 1019.64 1019.64 1019.68 1019.72 1019.76 1019.84 1019.88 1019.92 1020.00 1020.04 1019.92 1019.84 1019.64 1019.40 1019.16 1018.84 1018.84 1018.96 1018.80 1018.80 1018.72 1018.56 1018.44 1018.32 1018.28 1018.12 1017.96 1017.88 1017.64 1017.36 1016.96 1016.52 1016.20 1015.84 1015.56 1015.40 1015.16 1014.80 1014.44 1014.20 1014.04 1013.96 1013.88 1013.80 1013.68 1013.52 1013.44 1013.44 1013.44 1013.40 1013.40 1013.32 1013.24 1013.24 1013.20 1013.12 1013.12 1013.12 1013.12 1013.12 1013.12 1013.08 1013.08
1018.36 1018.44 1018.48 1018.52 1018.60 1018.72 1018.80 1018.96 1019.08 1019.20 1019.32 1019.40 1019.48 1019.56 1019.64 1019.68 1019.76 1019.80 1019.80 1019.88 1019.88 1019.80 1019.64 1019.52 1019.32 1019.08 1018.96 1018.92 1018.92 1018.92 1018.92 1018.88 1018.68 1018.56 1018.56 1018.48 1018.24 1018.00 1017.76 1017.64 1017.36 1016.92 1016.60 1016.16 1015.80 1015.64 1015.44 1015.04 1014.64 1014.16 1013.92 1013.72 1013.64 1013.52 1013.44 1013.32 1013.24 1013.28 1013.28 1013.16 1013.04 1012.96 1012.92 1012.88 1012.84 1012.80 1012.72 1012.72 1012.68 1012.68 1012.68 1012.68 1012.72 1012.72
1018.04 1018.04 1018.08 1018.16 1018.20 1018.32 1018.44 1018.56 1018.72 1018.84 1018.96 1019.12 1019.28 1019.28 1019.32 1019.40 1019.52 1019.60 1019.68 1019.68 1019.68 1019.60 1019.48 1019.36 1019.16 1019.04 1019.04 1019.08 1019.16 1019.24 1019.20 1019.12 1018.92 1018.60 1018.60 1018.60 1018.40 1018.12 1017.76 1017.28 1017.28 1017.04 1016.64 1016.20 1015.92 1015.68 1015.44 1015.08 1014.56 1014.08 1013.76 1013.56 1013.44 1013.36 1013.28 1013.20 1013.24 1013.24 1013.20 1013.08 1012.92 1012.80 1012.68 1012.60 1012.52 1012.44 1012.36 1012.28 1012.24 1012.20 1012.24 1012.24 1012.28 1012.32
1017.76 1017.76 1017.76 1017.76 1017.80 1017.92 1018.08 1018.24 1018.40 1018.68 1018.88 1018.96 1019.08 1019.16 1019.24 1019.44 1019.60 1019.64 1019.64 1019.60 1019.52 1019.52 1019.52 1019.40 1019.28 1019.28 1019.20 1019.16 1019.20 1019.28 1019.12 1018.96 1018.76 1018.68 1018.72 1018.72 1018.36 1018.12 1017.92 1017.52 1017.16 1016.92 1016.68 1016.40 1016.12 1015.68 1015.36 1015.08 1014.48 1013.92 1013.60 1013.44 1013.36 1013.32 1013.24 1013.24 1013.24 1013.16 1013.00 1012.84 1012.64 1012.48 1012.32 1012.20 1012.04 1011.92 1011.84 1011.80 1011.80 1011.80 1011.80 1011.80 1011.84 1011.88
1017.44 1017.48 1017.52 1017.56 1017.60 1017.64 1017.76 1017.96 1018.20 1018.48 1018.68 1018.88 1019.00 1019.08 1019.20 1019.28 1019.52 1019.84 1019.92 1019.76 1019.64 1019.60 1019.52 1019.32 1019.28 1019.28 1019.20 1019.12 1019.16 1019.24 1019.16 1019.00 1018.88 1018.84 1018.80 1018.68 1018.44 1018.36 1018.32 1017.88 1016.92 1016.76 1016.76 1016.60 1016.36 1015.68 1015.20 1014.88 1014.28 1013.72 1013.48 1013.36 1013.28 1013.24 1013.24 1013.16 1013.08 1012.96 1012.80 1012.60 1012.36 1012.16 1011.96 1011.76 1011.56 1011.44 1011.36 1011.32 1011.32 1011.36 1011.40 1011.44 1011.44 1011.44
1017.08 1017.12 1017.20 1017.28 1017.36 1017.44 1017.56 1017.76 1018.08 1018.32 1018.48 1018.68 1018.84 1018.96 1019.04 1019.16 1019.28 1019.40 1019.60 1019.68 1019.72 1019.60 1019.56 1019.48 1019.32 1019.32 1019.28 1019.16 1019.20 1019.24 1019.16 1019.04 1018.92 1018.84 1018.80 1018.72 1018.68 1018.60 1018.52 1018.24 1017.88 1016.72 1016.76 1016.76 1016.56 1015.84 1015.04 1014.44 1013.96 1013.64 1013.44 1013.28 1013.24 1013.16 1013.08 1013.04 1012.96 1012.84 1012.64 1012.36 1012.08 1011.84 1011.56 1011.32 1011.16 1011.00 1010.92 1010.88 1010.84 1010.88 1010.96 1010.96 1010.96 1011.00
1016.60 1016.76 1016.88 1016.96 1017.04 1017.00 1017.08 1017.36 1017.60 1018.00 1018.32 1018.44 1018.56 1018.60 1018.72 1018.84 1018.96 1019.08 1019.24 1019.36 1019.40 1019.40 1019.56 1019.56 1019.40 1019.28 1019.16 1019.20 1019.08 1019.08 1019.04 1018.92 1018.92 1018.76 1018.76 1018.76 1018.80 1018.72 1018.60 1018.16 1017.68 1016.92 1016.68 1016.72 1016.48 1015.92 1014.72 1014.20 1013.84 1013.72 1013.44 1013.24 1013.16 1013.08 1013.00 1012.96 1012.88 1012.68 1012.44 1012.16 1011.88 1011.56 1011.16 1010.88 1010.72 1010.60 1010.48 1010.44 1010.48 1010.48 1010.48 1010.52 1010.56 1010.56
1016.28 1016.36 1016.52 1016.68 1016.76 1016.76 1016.84 1017.08 1017.32 1017.56 1017.84 1018.16 1018.40 1018.52 1018.64 1018.72 1018.68 1018.80 1018.92 1019.04 1019.20 1019.32 1019.40 1019.40 1019.28 1018.84 1018.92 1019.00 1018.96 1018.92 1018.92 1018.92 1018.84 1018.84 1018.84 1018.80 1018.84 1018.72 1018.44 1017.96 1017.64 1016.92 1016.52 1016.52 1016.20 1015.40 1014.52 1014.16 1013.96 1013.84 1013.56 1013.40 1013.20 1013.12 1013.00 1012.88 1012.68 1012.48 1012.24 1011.96 1011.68 1011.36 1010.96 1010.64 1010.40 1010.20 1010.04 1010.04 1010.08 1010.12 1010.12 1010.12 1010.12 1010.16
1015.96 1016.08 1016.20 1016.32 1016.40 1016.52 1016.60 1016.72 1016.96 1017.20 1017.36 1017.48 1017.76 1018.08 1018.24 1018.28 1018.28 1018.36 1018.48 1018.64 1018.80 1019.00 1019.04 1018.96 1018.72 1018.60 1018.68 1018.72 1018.72 1018.68 1018.64 1018.68 1018.76 1018.80 1018.76 1018.68 1018.64 1018.40 1018.00 1017.64 1017.12 1016.60 1016.12 1015.72 1015.56 1015.32 1014.56 1014.20 1014.08 1013.88 1013.76 1013.52 1013.28 1013.08 1012.88 1012.72 1012.52 1012.28 1012.04 1011.72 1011.40 1011.04 1010.72 1010.44 1010.16 1009.88 1009.80 1009.76 1009.80 1009.84 1009.80 1009.72 1009.72 1009.72
1015.64 1015.76 1015.92 1016.08 1016.20 1016.28 1016.36 1016.40 1016.52 1016.68 1016.92 1017.16 1017.28 1017.32 1017.52 1017.76 1017.84 1017.80 1017.56 1017.56 1017.72 1017.88 1018.04 1018.12 1018.12 1018.08 1018.24 1018.32 1018.32 1018.36 1018.48 1018.64 1018.72 1018.72 1018.56 1018.48 1018.40 1018.32 1018.08 1017.60 1016.88 1016.64 1015.88 1015.56 1015.48 1015.16 1014.72 1014.36 1014.28 1013.92 1013.72 1013.64 1013.40 1013.04 1012.84 1012.56 1012.36 1012.12 1011.84 1011.48 1011.08 1010.68 1010.44 1010.20 1009.88 1009.68 1009.64 1009.60 1009.68 1009.64 1009.56 1009.44 1009.36 1009.28
1015.44 1015.52 1015.64 1015.76 1015.92 1016.00 1016.08 1016.12 1016.28 1016.48 1016.64 1016.80 1016.92 1017.00 1016.96 1016.96 1017.00 1017.00 1016.88 1016.92 1017.16 1017.32 1017.44 1017.48 1017.60 1017.72 1017.88 1018.00 1018.04 1018.16 1018.32 1018.48 1018.56 1018.76 1018.80 1018.56 1018.32 1018.28 1018.12 1017.52 1017.04 1016.36 1015.76 1015.36 1015.16 1015.12 1014.92 1014.52 1014.48 1014.16 1013.80 1013.60 1013.40 1012.96 1012.68 1012.44 1012.20 1011.96 1011.64 1011.28 1010.84 1010.48 1010.16 1009.84 1009.56 1009.56 1009.48 1009.48 1009.48 1009.44 1009.32 1009.20 1009.12 1009.04
1015.24 1015.24 1015.32 1015.44 1015.68 1015.72 1015.72 1015.80 1016.00 1016.20 1016.44 1016.60 1016.68 1016.80 1016.84 1016.88 1016.88 1016.72 1016.68 1016.68 1016.88 1017.00 1017.08 1017.20 1017.40 1017.64 1017.80 1017.84 1017.88 1017.88 1017.88 1017.96 1018.24 1018.56 1018.56 1018.00 1018.12 1018.12 1017.92 1017.52 1016.76 1016.00 1015.64 1015.28 1015.04 1015.08 1014.84 1014.56 1014.44 1014.36 1013.84 1013.40 1013.00 1012.96 1012.72 1012.44 1012.12 1011.80 1011.44 1011.04 1010.60 1010.28 1009.96 1009.60 1009.36 1009.32 1009.28 1009.28 1009.28 1009.28 1009.16 1009.08 1009.00 1008.96
1015.00 1015.00 1015.04 1015.12 1015.24 1015.36 1015.36 1015.48 1015.68 1015.92 1016.16 1016.32 1016.44 1016.56 1016.68 1016.72 1016.64 1016.48 1016.52 1016.52 1016.64 1017.20 1017.48 1017.52 1017.56 1017.56 1017.56 1017.52 1017.52 1017.48 1017.48 1017.52 1017.60 1017.80 1017.76 1017.72 1017.88 1017.84 1017.52 1017.04 1016.52 1016.20 1015.48 1015.08 1014.92 1015.04 1014.72 1014.64 1014.40 1014.36 1014.08 1013.64 1012.80 1012.76 1012.60 1012.36 1012.08 1011.80 1011.40 1010.88 1010.48 1010.16 1009.92 1009.52 1009.28 1009.12 1009.00 1009.04 1009.08 1009.08 1009.04 1009.04 1009.00 1008.96
1014.64 1014.64 1014.68 1014.68 1014.84 1014.96 1015.04 1015.16 1015.44 1015.68 1015.92 1016.00 1016.12 1016.32 1016.48 1016.52 1016.40 1016.24 1016.32 1016.36 1016.36 1016.52 1016.96 1017.04 1017.20 1017.24 1017.20 1017.20 1017.20 1017.16 1017.12 1017.08 1017.08 1017.12 1017.20 1017.24 1017.28 1017.32 1017.04 1016.72 1016.60 1016.40 1015.56 1014.92 1014.88 1015.00 1014.64 1014.56 1014.44 1014.24 1014.20 1014.20 1013.24 1012.36 1012.56 1012.28 1012.08 1011.80 1011.44 1011.00 1010.56 1010.20 1009.72 1009.32 1009.32 1009.08 1008.80 1008.92 1008.96 1009.04 1009.04 1009.00 1009.00 1009.04
1014.24 1014.24 1014.20 1014.16 1014.32 1014.56 1014.68 1014.88 1015.16 1015.40 1015.64 1015.76 1015.84 1015.96 1016.00 1016.00 1016.12 1016.32 1016.44 1016.48 1016.60 1016.76 1017.00 1017.12 1017.16 1017.20 1017.12 1017.04 1016.88 1016.76 1016.72 1016.72 1016.68 1016.56 1016.52 1016.56 1016.56 1016.60 1016.56 1016.52 1016.36 1016.04 1015.40 1014.92 1014.80 1014.88 1014.76 1014.48 1014.36 1014.08 1013.80 1013.76 1013.48 1013.20 1012.56 1012.44 1012.00 1011.84 1011.52 1011.20 1010.60 1010.28 1009.84 1009.32 1009.08 1008.88 1008.84 1008.92 1009.00 1009.04 1009.04 1009.04 1009.12 1009.20
1013.84 1013.76 1013.64 1013.60 1013.72 1013.96 1014.20 1014.44 1014.80 1015.08 1015.28 1015.44 1015.64 1015.56 1015.64 1015.92 1016.32 1016.44 1016.60 1016.68 1016.72 1016.84 1016.92 1017.00 1017.00 1016.92 1016.84 1016.64 1016.40 1016.20 1016.16 1016.20 1016.16 1016.08 1015.96 1015.96 1016.00 1016.00 1016.04 1016.04 1016.04 1015.88 1015.28 1014.68 1014.68 1014.68 1014.56 1014.28 1014.04 1013.88 1013.60 1013.56 1013.28 1013.40 1013.08 1012.44 1012.12 1011.80 1011.52 1011.12 1010.60 1010.16 1009.88 1009.60 1009.40 1009.16 1008.92 1008.92 1008.84 1008.92 1008.92 1008.88 1008.92 1008.92
1013.40 1013.32 1013.24 1013.12 1013.16 1013.48 1013.72 1014.00 1014.44 1014.80 1014.96 1015.28 1015.40 1015.44 1015.72 1015.96 1016.32 1016.52 1016.56 1016.60 1016.64 1016.68 1016.76 1016.80 1016.72 1016.56 1016.48 1016.36 1016.08 1015.88 1015.72 1015.72 1015.76 1015.68 1015.60 1015.56 1015.60 1015.60 1015.56 1015.48 1015.40 1015.28 1014.84 1014.48 1014.24 1014.12 1014.04 1013.76 1013.44 1013.44 1013.32 1013.24 1013.48 1013.20 1013.04 1012.80 1012.16 1011.72 1011.48 1011.08 1010.56 1010.12 1009.84 1009.68 1009.56 1009.24 1008.96 1008.88 1008.80 1008.72 1008.76 1008.76 1008.84 1008.76
1013.12 1013.08 1013.12 1013.20 1013.16 1013.32 1013.52 1013.88 1014.28 1014.56 1014.88 1015.16 1015.32 1015.68 1015.88 1016.04 1016.20 1016.40 1016.52 1016.56 1016.56 1016.56 1016.60 1016.64 1016.40 1016.20 1016.08 1016.00 1015.76 1015.48 1015.28 1015.28 1015.36 1015.40 1015.32 1015.28 1015.28 1015.32 1015.24 1015.04 1014.88 1014.68 1014.36 1014.04 1013.68 1013.56 1013.44 1013.28 1013.04 1012.88 1012.88 1012.96 1013.28 1013.28 1013.00 1012.60 1012.44 1012.00 1011.68 1011.04 1010.72 1010.36 1009.96 1009.64 1009.44 1009.28 1009.08 1008.84 1008.68 1008.84 1008.76 1008.64 1008.56 1008.60
1013.68 1014.08 1014.12 1013.88 1013.76 1013.72 1013.88 1014.32 1014.76 1015.08 1015.36 1015.52 1015.68 1015.88 1016.04 1016.12 1016.28 1016.36 1016.44 1016.36 1016.36 1016.40 1016.28 1016.08 1015.92 1015.76 1015.64 1015.48 1015.20 1014.92 1014.80 1014.84 1015.00 1015.08 1015.04 1015.00 1014.96 1014.92 1014.76 1014.56 1014.40 1014.16 1013.96 1013.52 1013.20 1012.92 1012.76 1012.72 1012.60 1012.52 1012.64 1012.88 1012.96 1012.76 1012.84 1012.76 1012.52 1012.04 1011.60 1011.36 1010.96 1010.56 1010.12 1009.72 1009.44 1009.28 1009.08 1008.80 1008.68 1008.60 1008.60 1008.32 1008.16 1008.08
1013.96 1014.36 1014.64 1014.48 1014.40 1014.40 1014.60 1014.88 1015.00 1015.16 1015.28 1015.56 1015.84 1015.96 1016.00 1016.12 1016.08 1016.04 1016.04 1016.08 1016.16 1015.92 1015.72 1015.64 1015.52 1015.28 1015.16 1015.00 1014.72 1014.48 1014.52 1014.64 1014.76 1014.84 1014.84 1014.80 1014.64 1014.52 1014.36 1014.20 1013.92 1013.68 1013.40 1013.00 1012.56 1012.24 1012.04 1012.00 1012.12 1012.28 1012.32 1012.36 1012.40 1012.48 1012.56 1012.68 1012.44 1012.04 1011.68 1011.60 1011.36 1010.72 1010.16 1009.88 1009.56 1009.24 1009.04 1008.80 1008.68 1008.32 1007.84 1007.56 1007.52 1007.68
1014.00 1014.00 1014.24 1014.32 1014.32 1014.36 1014.52 1014.72 1014.92 1015.08 1015.20 1015.48 1015.76 1015.92 1015.88 1015.72 1015.56 1015.48 1015.52 1015.52 1015.56 1015.44 1015.40 1015.28 1015.12 1014.92 1014.80 1014.68 1014.52 1014.32 1014.40 1014.44 1014.44 1014.48 1014.52 1014.56 1014.36 1014.24 1014.08 1014.04 1013.80 1013.48 1013.00 1012.56 1012.04 1011.64 1011.44 1011.52 1011.68 1011.84 1012.12 1012.12 1012.16 1012.24 1012.40 1012.48 1012.44 1012.08 1011.88 1011.76 1011.64 1011.64 1010.64 1010.08 1009.84 1009.48 1009.20 1008.92 1008.56 1008.28 1007.92 1007.64 1007.64 1007.80
1013.84 1013.96 1014.00 1014.16 1014.36 1014.44 1014.64 1014.76 1014.88 1014.92 1015.00 1015.04 1015.12 1015.20 1015.20 1015.12 1014.96 1014.88 1014.96 1015.08 1015.08 1014.92 1014.92 1014.88 1014.80 1014.72 1014.60 1014.44 1014.20 1014.04 1014.12 1014.12 1014.16 1014.24 1014.28 1014.28 1014.12 1013.96 1013.88 1013.84 1013.60 1013.32 1012.92 1012.44 1011.84 1011.44 1011.28 1011.36 1011.48 1011.68 1011.68 1011.76 1012.00 1012.28 1012.44 1012.44 1012.40 1012.20 1012.12 1011.96 1011.80 1011.48 1011.00 1010.56 1010.16 1009.72 1009.32 1009.04 1008.72 1008.52 1008.00 1007.96 1008.00 1008.04
1013.64 1013.80 1013.96 1014.04 1014.08 1014.12 1014.20 1014.28 1014.36 1014.40 1014.48 1014.56 1014.52 1014.44 1014.28 1014.20 1014.40 1014.76 1014.92 1014.88 1014.68 1014.60 1014.72 1014.64 1014.56 1014.40 1014.36 1014.12 1013.84 1013.64 1013.72 1013.80 1013.92 1013.96 1014.00 1013.92 1013.88 1013.64 1013.60 1013.68 1013.52 1013.28 1012.88 1012.24 1011.68 1011.40 1011.40 1011.40 1011.48 1011.48 1011.60 1011.80 1012.08 1012.36 1012.60 1012.68 1012.44 1012.20 1012.24 1012.16 1012.00 1011.76 1011.32 1010.80 1010.48 1010.08 1009.64 1009.32 1009.00 1008.76 1008.40 1008.28 1008.20 1008.28
1013.68 1013.52 1013.68 1013.72 1013.72 1013.72 1013.76 1013.76 1013.76 1013.72 1013.76 1013.76 1013.84 1013.80 1013.80 1013.92 1014.00 1014.08 1014.28 1014.32 1014.32 1014.32 1014.32 1014.24 1014.28 1014.20 1014.08 1013.84 1013.52 1013.32 1013.40 1013.52 1013.64 1013.64 1013.68 1013.60 1013.44 1013.48 1013.52 1013.52 1013.32 1012.92 1012.52 1012.00 1011.64 1011.40 1011.28 1011.44 1011.44 1011.72 1011.80 1011.96 1012.32 1012.52 1012.60 1012.68 1012.64 1012.36 1012.24 1012.24 1012.24 1012.08 1011.60 1011.16 1010.64 1010.24 1010.00 1009.84 1009.52 1009.08 1008.64 1008.72 1008.60 1008.52
1013.36 1013.24 1013.08 1013.00 1013.16 1013.24 1013.16 1013.08 1013.00 1013.04 1013.16 1013.28 1013.28 1013.16 1013.12 1013.36 1013.64 1013.72 1013.76 1013.76 1013.88 1013.92 1013.92 1013.88 1013.84 1013.76 1013.60 1013.32 1013.08 1012.96 1013.04 1013.24 1013.36 1013.36 1013.32 1013.28 1013.20 1013.24 1013.28 1013.32 1013.04 1012.64 1012.20 1011.84 1011.56 1011.32 1011.04 1011.16 1011.24 1011.28 1011.72 1012.08 1012.44 1012.76 1012.88 1012.92 1012.80 1012.48 1012.40 1012.40 1012.40 1012.32 1011.92 1011.44 1010.96 1010.36 1010.08 1009.84 1009.56 1009.36 1008.84 1008.76 1009.04 1008.92
1013.16 1012.96 1012.76 1012.52 1012.32 1012.28 1012.40 1012.44 1012.48 1012.56 1012.64 1012.64 1012.72 1012.68 1012.72 1012.76 1013.16 1013.44 1013.44 1013.32 1013.44 1013.40 1013.40 1013.40 1013.32 1013.20 1013.00 1012.80 1012.64 1012.64 1012.84 1013.04 1013.16 1013.20 1013.08 1013.00 1012.96 1013.04 1013.04 1012.96 1012.76 1012.40 1012.08 1011.68 1011.32 1011.08 1010.96 1010.84 1010.92 1011.20 1011.56 1011.68 1011.84 1012.16 1012.52 1012.88 1012.84 1012.60 1012.60 1012.60 1012.44 1012.40 1012.12 1011.68 1011.16 1010.60 1010.16 1010.00 1009.72 1009.56 1009.60 1009.36 1009.36 1009.32
1012.88 1012.80 1012.56 1012.40 1012.40 1012.40 1012.20 1012.00 1011.92 1011.96 1012.08 1012.12 1012.16 1012.24 1012.36 1012.36 1012.72 1012.96 1012.92 1012.92 1012.96 1012.92 1012.88 1012.88 1012.80 1012.68 1012.52 1012.32 1012.32 1012.44 1012.68 1012.92 1013.08 1012.96 1012.92 1012.80 1012.80 1012.84 1012.88 1012.72 1012.48 1012.12 1011.72 1011.36 1011.20 1011.08 1010.96 1010.72 1010.76 1010.96 1011.32 1011.60 1012.08 1012.40 1012.28 1012.72 1012.84 1012.64 1012.52 1012.64 1012.52 1012.48 1012.28 1011.92 1011.52 1010.92 1010.32 1010.12 1009.92 1009.88 1009.92 1009.76 1009.76 1009.68
1012.72 1012.56 1012.52 1012.40 1012.32 1012.20 1012.12 1011.96 1011.88 1011.92 1011.96 1011.96 1011.92 1011.76 1011.84 1012.08 1012.12 1012.08 1011.96 1012.08 1012.12 1012.20 1012.28 1012.32 1012.28 1012.16 1011.92 1011.84 1012.08 1012.36 1012.56 1012.68 1012.76 1012.80 1012.76 1012.76 1012.80 1012.76 1012.68 1012.56 1012.24 1011.92 1011.72 1011.48 1011.32 1011.20 1010.96 1010.60 1010.56 1010.92 1011.20 1011.60 1011.88 1012.04 1012.08 1011.92 1012.32 1012.68 1012.64 1012.48 1012.64 1012.52 1012.32 1012.08 1011.80 1011.20 1010.60 1010.16 1010.00 1009.88 1009.84 1009.88 1009.92 1009.84
1012.52 1012.32 1012.16 1012.00 1011.88 1011.84 1011.88 1011.80 1011.72 1011.76 1011.76 1011.64 1011.44 1011.36 1011.40 1011.40 1011.36 1011.28 1011.20 1011.20 1011.16 1011.20 1011.28 1011.44 1011.48 1011.48 1011.48 1011.60 1011.84 1012.16 1012.36 1012.48 1012.60 1012.60 1012.52 1012.52 1012.56 1012.60 1012.52 1012.24 1012.04 1011.92 1011.96 1011.84 1011.60 1011.32 1010.92 1010.68 1010.84 1011.04 1011.24 1011.52 1011.64 1011.64 1011.60 1011.84 1012.04 1012.60 1012.72 1012.40 1012.40 1012.52 1012.40 1012.24 1011.92 1011.44 1011.00 1010.68 1010.32 1009.96 1009.84 1009.84 1009.80 1009.80
1012.36 1012.20 1012.00 1011.84 1011.64 1011.52 1011.44 1011.40 1011.32 1011.24 1011.12 1010.96 1010.88 1010.80 1010.80 1010.80 1010.76 1010.68 1010.60 1010.44 1010.52 1010.52 1010.52 1010.56 1010.64 1010.84 1011.08 1011.32 1011.64 1011.92 1012.12 1012.16 1012.20 1012.20 1012.20 1012.24 1012.24 1012.24 1012.16 1012.04 1012.08 1012.12 1012.16 1012.12 1011.88 1011.48 1010.96 1011.00 1010.92 1010.96 1011.04 1011.16 1011.24 1011.20 1011.32 1011.60 1012.00 1012.40 1012.52 1012.48 1012.32 1012.40 1012.48 1012.28 1012.12 1011.76 1011.24 1011.00 1010.80 1010.24 1009.60 1009.68 1009.60 1009.64
1011.84 1011.88 1011.72 1011.52 1011.36 1011.24 1011.16 1011.08 1011.04 1010.92 1010.80 1010.68 1010.60 1010.48 1010.36 1010.28 1010.28 1010.20 1010.12 1010.04 1010.12 1010.24 1010.28 1010.28 1010.44 1010.64 1010.84 1011.12 1011.44 1011.72 1011.84 1011.92 1011.96 1012.00 1012.00 1012.04 1012.04 1012.04 1012.04 1012.08 1012.12 1012.08 1012.16 1012.08 1011.88 1011.48 1010.84 1010.80 1010.76 1010.72 1010.84 1010.96 1010.96 1011.12 1011.48 1011.76 1012.00 1012.12 1012.24 1012.32 1012.32 1012.32 1012.28 1012.28 1012.16 1012.00 1011.76 1011.44 1011.04 1010.36 1009.76 1009.40 1009.12 1009.08
1011.04 1011.24 1011.04 1010.96 1011.00 1010.96 1010.96 1010.92 1010.68 1010.52 1010.40 1010.36 1010.32 1010.24 1010.12 1010.08 1010.00 1010.00 1010.00 1010.00 1009.92 1009.92 1010.00 1010.12 1010.24 1010.40 1010.60 1010.80 1011.08 1011.32 1011.48 1011.68 1011.88 1011.96 1012.00 1012.00 1011.96 1012.00 1012.00 1012.04 1012.08 1012.00 1012.04 1012.04 1011.72 1011.24 1010.84 1010.84 1010.88 1010.88 1010.76 1010.76 1010.96 1011.28 1011.72 1011.88 1012.08 1012.08 1012.12 1012.12 1012.12 1012.24 1012.24 1012.16 1012.12 1011.92 1011.76 1011.52 1011.32 1010.88 1010.48 1009.68 1009.36 1009.16
1010.32 1010.32 1010.28 1010.32 1010.40 1010.48 1010.48 1010.48 1010.40 1010.40 1010.36 1010.28 1010.20 1010.12 1010.08 1010.04 1009.96 1009.92 1009.92 1009.92 1010.00 1010.08 1010.12 1010.16 1010.28 1010.44 1010.60 1010.72 1010.84 1010.96 1011.24 1011.52 1011.80 1011.88 1011.92 1011.92 1011.88 1011.88 1011.84 1011.80 1011.80 1011.76 1011.76 1011.64 1011.48 1011.20 1010.92 1010.88 1011.04 1010.84 1010.68 1010.84 1011.00 1011.12 1011.60 1011.80 1011.84 1012.04 1012.08 1012.20 1012.24 1012.08 1012.08 1012.08 1012.08 1011.88 1011.72 1011.52 1011.44 1011.40 1011.24 1010.92 1010.60 1009.60
1010.56 1010.56 1010.52 1010.56 1010.64 1010.68 1010.68 1010.68 1010.64 1010.60 1010.60 1010.56 1010.48 1010.36 1010.32 1010.24 1010.20 1010.12 1010.04 1010.04 1010.04 1010.16 1010.24 1010.32 1010.36 1010.40 1010.52 1010.64 1010.76 1010.96 1011.24 1011.48 1011.72 1011.84 1011.84 1011.80 1011.76 1011.72 1011.72 1011.72 1011.76 1011.84 1011.80 1011.68 1011.56 1011.36 1011.16 1010.92 1010.56 1010.48 1010.64 1010.80 1010.80 1011.00 1011.40 1011.56 1011.84 1011.96 1012.12 1012.20 1012.16 1012.16 1012.08 1011.92 1011.92 1011.80 1011.64 1011.40 1011.24 1011.20 1011.00 1010.88 1010.84 1010.56
1010.76 1010.76 1010.84 1010.92 1010.96 1010.92 1010.96 1010.92 1010.92 1010.88 1010.84 1010.76 1010.68 1010.60 1010.52 1010.48 1010.48 1010.44 1010.32 1010.28 1010.32 1010.32 1010.28 1010.32 1010.40 1010.44 1010.52 1010.60 1010.76 1010.92 1011.12 1011.32 1011.52 1011.60 1011.64 1011.64 1011.68 1011.72 1011.68 1011.76 1011.80 1011.84 1011.84 1011.72 1011.64 1011.44 1011.28 1011.08 1010.68 1010.32 1010.40 1010.56 1010.60 1010.84 1011.20 1011.48 1011.76 1011.88 1012.00 1012.04 1012.12 1012.08 1012.00 1012.08 1012.12 1012.04 1011.80 1011.44 1011.32 1011.28 1011.12 1010.88 1010.68 1010.52
Wind_Speed
1 1 1 1 2 1 2 2 2 3 2 3 2 1 1 1 1 2 2 4 2 3 4 3 2 4 4 4 4 3 3 5 3 3 2 4 4 7 7 9 12 15 18 19 19 19 18 17 17 17 18 19 19 19 19 20 20 19 18 18 18 18 18 20 20 20 20 20 20 19 18 20 19 18
2 1 2 2 1 2 1 2 0 2 0 2 3 1 1 2 0 1 2 4 3 3 3 3 5 4 5 5 4 4 4 6 2 3 4 4 4 8 10 12 14 15 16 16 18 18 16 15 16 17 19 20 20 20 20 18 17 16 16 15 15 16 16 18 18 18 18 19 19 19 18 18 19 19
2 2 3 1 1 2 0 1 1 2 2 3 5 5 3 1 2 1 2 2 2 3 4 3 3 6 5 5 5 5 4 5 5 4 4 4 9 11 8 11 10 11 13 14 13 12 13 14 15 17 19 20 20 20 20 19 17 15 14 14 14 15 16 18 18 18 18 18 18 18 18 18 17 17
3 3 3 3 2 2 2 2 3 3 3 3 2 3 2 3 4 4 3 5 7 4 4 4 4 6 5 6 5 4 5 6 8 4 4 5 7 5 6 10 12 12 10 8 9 10 10 13 15 17 18 18 18 19 19 19 18 16 15 14 14 14 15 16 17 17 18 17 17 17 17 17 17 18
3 4 3 4 4 4 4 4 5 4 5 5 5 4 3 4 4 5 5 4 6 4 2 4 4 5 6 4 4 6 5 4 4 6 4 5 5 5 5 5 10 14 12 7 8 10 11 13 15 16 17 16 14 15 17 17 16 16 16 15 14 14 15 16 16 17 17 17 17 17 17 16 17 17
4 3 4 5 5 4 4 4 4 6 7 5 6 7 7 6 5 4 2 4 3 6 3 4 4 6 3 5 4 6 5 4 5 5 5 6 7 6 4 5 6 13 14 16 14 12 12 13 13 13 14 13 14 15 16 17 16 15 14 14 14 13 13 15 16 16 15 16 16 16 16 17 17 16
5 4 4 4 3 4 4 3 3 3 3 2 3 3 2 3 1 1 3 1 2 5 5 3 5 4 3 4 6 5 4 5 6 7 6 6 7 7 7 6 6 12 14 15 16 16 17 14 13 13 13 13 14 16 17 17 16 15 15 15 14 12 12 14 15 16 16 15 15 15 15 15 15 15
6 6 5 5 4 4 4 3 3 3 4 3 3 3 4 2 3 4 3 2 3 3 5 3 5 5 5 5 4 4 4 6 6 6 6 5 5 6 7 8 8 10 15 16 15 15 15 14 12 11 12 13 14 16 17 17 16 15 15 15 15 13 11 11 13 16 16 17 17 17 16 14 14 14
6 6 8 6 6 5 4 4 4 4 5 5 4 5 4 3 2 2 1 1 1 4 6 5 4 5 6 5 3 3 5 4 5 7 7 6 5 6 6 8 8 13 15 14 14 16 15 8 8 10 11 13 14 15 17 16 15 16 15 15 15 13 11 12 13 13 14 14 15 16 16 15 16 15
5 5 5 7 6 5 6 5 5 5 5 5 4 4 3 3 3 2 1 1 3 5 5 4 6 4 5 3 2 3 4 5 7 5 5 5 6 5 6 7 8 8 8 7 8 8 7 13 17 16 13 10 12 14 15 15 15 15 15 15 14 12 12 13 14 14 15 15 14 14 14 15 15 16
6 6 5 4 5 6 5 6 6 5 4 4 3 3 2 3 3 3 3 3 4 4 5 5 5 5 3 2 4 3 4 6 6 7 6 6 5 6 6 8 7 8 9 10 13 10 13 16 15 15 13 10 10 9 9 11 12 12 12 13 12 12 14 15 15 15 16 15 14 13 12 12 13 14
7 6 6 5 6 6 6 5 5 5 4 4 4 4 4 4 4 4 3 3 4 5 4 4 5 4 3 3 2 3 4 5 4 4 5 8 8 8 7 6 8 8 8 9 7 8 10 12 16 15 9 8 7 8 10 10 9 8 10 12 13 13 14 15 15 15 15 14 14 15 14 13 12 13
6 6 6 6 5 6 9 11 8 6 4 4 4 4 4 3 3 3 3 4 5 5 5 5 4 4 4 3 3 5 4 5 6 5 4 6 7 8 9 8 6 6 9 8 8 8 8 10 10 8 6 5 5 6 8 6 6 9 8 9 11 12 13 14 15 15 15 15 15 15 14 12 12 13
7 7 5 6 11 12 12 11 11 8 6 4 2 1 1 0 2 3 3 4 3 4 5 5 4 5 5 3 2 3 3 5 5 5 6 8 8 7 7 8 6 6 7 8 10 9 9 10 11 7 5 3 3 3 3 4 7 8 11 13 13 12 13 15 16 17 17 17 16 16 16 15 14 13
7 6 7 5 6 8 9 8 11 10 10 9 8 6 5 5 3 2 3 4 3 4 5 4 4 5 6 4 2 3 5 4 4 5 6 7 7 7 9 11 10 3 5 8 9 11 10 10 9 6 5 4 4 4 5 10 11 14 17 18 18 17 16 16 17 17 17 17 16 16 15 15 15 15
6 6 6 5 6 5 6 5 7 9 11 11 11 11 10 10 9 9 7 6 5 4 5 5 5 4 6 5 3 3 4 5 5 5 5 6 7 9 9 9 10 9 7 9 9 12 10 8 7 5 4 4 3 5 9 12 15 18 19 20 21 21 20 18 18 18 17 17 16 15 15 14 15 16
6 6 6 6 5 7 11 10 7 7 8 11 14 14 14 13 12 13 13 12 9 5 5 6 7 7 6 6 4 2 4 4 6 5 5 5 7 7 9 9 9 11 10 9 9 11 9 7 6 6 5 5 4 6 8 12 15 17 18 20 20 20 21 18 17 17 17 16 14 13 13 13 14 14
7 6 5 6 5 4 4 5 7 5 6 8 9 9 8 7 10 13 14 14 14 10 8 7 9 9 4 6 4 4 4 5 5 5 6 6 7 8 10 11 11 12 10 10 8 8 8 7 6 7 6 6 7 6 10 15 17 17 17 18 19 18 17 15 15 16 15 13 11 11 12 12 13 14
7 6 6 5 4 4 5 5 7 7 6 5 6 7 8 9 8 8 9 10 10 9 9 10 11 10 7 6 7 6 3 2 3 4 7 7 7 9 9 10 9 9 7 7 4 9 7 5 7 5 6 6 8 7 10 15 17 17 17 17 20 21 16 13 15 16 14 12 10 11 12 13 14 14
6 5 5 5 5 5 4 6 11 10 7 6 7 6 6 8 8 9 10 15 14 12 11 11 11 10 8 8 6 3 2 3 4 5 6 5 6 7 8 9 7 7 7 4 6 7 5 4 6 8 6 6 8 9 9 12 15 16 17 19 21 20 13 14 16 15 13 11 9 10 12 12 13 13
6 6 6 6 6 5 6 8 10 12 11 6 6 6 6 5 4 6 6 11 18 18 17 16 15 13 12 10 8 8 8 6 4 3 5 7 5 6 8 8 8 7 5 5 4 3 6 4 5 8 8 7 9 9 8 8 12 16 17 18 20 14 12 16 17 13 13 9 7 8 10 11 9 9
6 7 11 10 7 7 7 10 12 12 10 7 7 6 6 7 7 7 5 4 6 16 17 16 13 9 7 8 8 9 10 11 5 4 8 7 3 7 7 9 8 8 7 5 0 4 4 5 3 5 7 9 5 6 6 8 10 13 14 17 17 8 13 18 16 12 12 8 5 7 7 7 4 3
7 7 8 13 11 9 9 12 12 13 11 7 7 7 6 7 9 7 4 5 3 4 6 6 5 6 6 6 5 7 13 14 10 7 8 6 5 7 7 8 8 9 5 4 2 5 5 6 5 4 7 8 7 2 5 9 9 9 10 10 10 12 14 16 12 11 12 7 5 7 6 5 3 3
7 8 7 10 16 16 15 12 12 13 14 9 7 5 6 7 9 4 4 4 4 3 8 6 5 5 4 4 4 5 6 7 7 8 8 7 6 7 7 7 7 8 8 5 4 5 4 3 6 5 5 6 9 7 6 8 8 9 9 10 10 10 13 11 5 11 13 4 4 6 6 5 5 4
7 7 8 7 12 18 18 16 14 14 15 13 8 7 8 8 2 3 1 2 3 1 2 3 4 4 4 6 6 7 6 6 7 7 8 8 8 7 7 7 7 9 9 9 8 4 5 5 7 6 6 3 5 7 7 8 8 8 9 10 10 5 8 8 5 6 3 2 5 7 5 5 5 5
7 7 7 7 12 19 19 18 16 16 15 16 10 10 11 5 4 0 1 2 0 2 3 3 4 5 5 6 6 6 6 6 6 6 6 6 6 6 6 7 8 8 10 10 11 8 7 6 5 6 5 3 5 3 8 8 8 8 9 9 9 6 5 8 7 6 6 1 3 3 5 8 8 10
6 6 7 8 12 18 19 19 17 16 16 13 10 12 9 6 3 2 3 4 4 4 4 5 7 6 6 6 7 6 6 6 6 6 5 4 5 5 6 8 8 9 10 11 10 10 7 7 5 5 7 4 4 6 5 7 9 8 9 9 10 8 6 5 6 4 6 3 4 8 8 7 10 11
4 5 2 2 4 11 14 15 16 16 14 10 12 10 9 7 6 3 3 5 6 6 6 7 9 9 7 7 7 8 6 6 5 6 5 4 4 6 8 9 10 10 11 11 11 10 8 8 8 8 6 4 4 5 8 5 7 8 9 9 8 8 8 6 6 2 4 5 2 2 4 5 6 6
3 6 7 8 5 2 6 8 8 6 7 8 5 6 8 8 4 5 5 6 6 7 8 9 9 8 8 8 8 8 6 4 4 4 4 4 6 8 9 10 10 10 9 9 10 10 10 9 9 6 3 5 3 4 4 7 7 8 8 9 8 10 9 7 6 6 4 4 4 3 6 7 6 6
8 5 4 5 7 6 4 3 3 4 5 7 7 6 7 5 6 6 6 7 7 9 9 8 9 8 6 6 7 6 5 5 6 5 5 4 5 5 5 5 6 6 8 10 12 11 11 10 8 4 1 2 3 5 4 4 6 7 7 7 8 9 6 7 7 7 7 7 5 6 6 6 6 4
11 10 4 3 5 2 6 4 3 3 4 4 4 6 6 7 7 8 7 8 8 9 8 8 8 7 6 6 7 6 5 6 5 5 5 5 5 4 4 5 7 7 8 9 11 9 4 3 4 3 1 3 3 2 1 3 6 6 6 6 7 8 9 8 7 8 8 7 7 6 5 5 6 6
7 7 6 3 3 2 3 2 2 3 4 5 5 6 7 8 10 9 10 9 8 8 7 7 6 7 6 7 7 5 5 5 5 4 5 5 5 4 4 4 6 6 7 8 10 2 2 3 3 4 3 3 2 1 2 2 4 5 6 6 8 8 8 8 8 8 8 8 7 7 6 3 5 6
3 3 4 5 5 5 6 5 5 5 6 6 7 9 9 8 7 6 6 8 9 8 6 8 8 8 7 8 7 6 5 5 5 4 5 5 6 5 3 4 6 7 8 8 6 4 3 1 3 2 2 4 5 3 1 2 3 4 4 6 7 8 8 8 8 8 8 8 8 7 5 3 6 5
4 4 4 5 5 5 5 6 6 6 6 7 7 8 9 8 6 7 7 8 8 7 8 8 7 8 7 8 7 6 5 5 5 6 6 6 5 4 3 5 6 7 8 7 5 7 3 4 4 4 4 5 5 4 2 2 4 4 4 4 6 8 8 8 8 8 5 5 7 8 5 4 6 6
5 4 4 5 5 6 5 6 6 6 6 7 7 7 6 6 8 8 7 7 6 7 7 8 7 7 7 7 6 6 5 5 5 4 5 6 5 4 3 5 6 7 6 6 6 6 5 4 3 2 3 3 2 1 3 1 2 3 4 4 4 6 8 8 8 8 5 5 5 5 6 3 5 6
5 5 5 5 4 3 4 6 6 6 6 6 6 6 5 5 5 7 8 7 7 7 7 7 7 7 7 7 6 5 4 4 4 5 5 5 4 3 3 5 6 8 7 7 6 5 5 2 2 2 2 2 3 4 1 1 3 2 3 4 4 6 7 8 9 8 5 5 5 5 5 5 4 5
4 4 4 4 4 5 6 5 4 4 5 5 5 5 6 4 3 5 7 7 8 8 7 6 7 7 7 7 5 3 3 4 5 5 6 4 3 3 4 5 7 7 6 4 5 5 6 5 3 3 2 2 2 3 2 3 3 5 2 3 4 4 7 8 8 7 5 4 3 3 3 3 3 4
5 4 5 5 6 6 6 5 4 4 3 4 6 4 0 2 4 6 6 7 7 6 7 7 7 6 6 4 4 4 4 5 5 5 5 4 4 4 4 5 5 5 4 5 4 6 6 7 3 4 3 2 1 1 3 1 2 2 4 1 3 5 6 6 7 7 7 5 4 3 3 2 1 2
5 5 5 5 4 4 4 5 4 4 5 6 5 4 5 6 6 6 6 7 7 6 6 7 7 7 6 4 4 4 4 4 5 6 5 5 5 5 5 4 4 3 4 5 5 6 7 3 5 3 2 2 2 3 1 2 1 2 1 3 3 3 5 6 6 7 5 6 7 3 1 1 1 2
7 5 5 5 5 5 5 4 5 5 5 5 5 5 6 6 6 6 6 6 7 7 7 8 7 6 4 4 4 4 5 5 6 5 5 5 5 5 4 3 1 2 3 5 6 7 5 2 3 3 2 0 1 1 1 2 2 3 3 1 3 2 2 4 5 7 5 5 7 6 4 2 2 2
5 6 7 7 7 6 5 5 5 5 5 5 5 5 5 5 5 4 5 4 1 1 1 2 3 3 3 4 4 5 5 5 4 5 4 4 4 5 3 2 3 3 3 5 6 7 4 3 4 5 3 2 1 2 3 1 1 0 1 1 2 2 2 1 3 3 3 5 7 5 5 4 4 1
6 7 7 7 6 6 5 6 5 5 4 3 3 3 4 4 5 5 5 3 4 4 4 3 1 1 3 4 4 4 5 5 4 4 4 4 4 4 5 5 5 5 4 5 6 5 3 3 3 3 2 2 2 2 2 3 2 2 2 0 0 3 2 3 2 3 3 4 5 4 4 5 5 4
2 2 3 3 2 2 2 3 3 3 4 4 4 3 4 5 4 4 4 4 3 3 4 2 1 1 2 2 3 3 4 3 4 4 4 4 5 4 4 4 3 3 2 3 4 5 6 2 4 4 3 3 1 1 1 0 1 0 1 2 3 3 3 4 6 2 4 6 5 1 2 2 2 2
6 5 5 5 5 5 4 5 5 5 5 5 5 5 5 6 5 4 5 4 4 4 3 1 1 2 2 2 2 2 3 3 3 5 4 5 5 4 4 3 1 2 3 4 4 6 5 7 6 4 4 2 1 2 3 1 1 2 2 0 0 2 3 3 2 4 2 5 10 7 6 4 5 7
4 4 5 5 5 5 5 4 5 4 4 4 5 5 4 5 5 6 5 5 5 3 2 3 4 2 0 1 1 1 2 4 4 4 4 4 4 4 3 3 1 2 4 4 4 5 5 5 6 0 3 4 3 3 4 4 1 1 1 0 0 1 1 1 3 5 5 4 7 9 6 6 5 4
Wind_Direction
200 179 222 129 160 129 93 19 27 61 359 335 97 266 122 91 292 316 318 299 333 308 12 338 334 354 335 314 296 292 296 285 217 269 288 289 274 264 239 229 245 265 284 292 293 294 297 300 305 310 315 317 320 321 321 318 317 315 312 311 311 312 311 312 312 308 302 301 298 293 294 297 296 294
206 177 230 172 240 95 119 130 241 113 254 300 317 360 308 133 188 348 293 294 295 294 349 336 317 325 310 304 309 310 282 279 236 314 303 285 280 285 273 263 266 271 276 278 280 283 292 300 302 305 311 315 318 319 319 317 313 310 312 311 308 305 303 304 307 305 300 295 293 292 291 290 293 296
226 198 238 180 107 113 297 128 193 187 181 231 238 206 195 135 136 217 256 279 278 5 304 294 299 304 300 317 301 286 304 321 326 298 289 292 296 306 298 292 280 268 264 264 269 276 280 285 289 297 304 310 313 313 312 311 308 308 309 303 300 297 299 305 303 304 304 303 299 295 293 291 290 287
206 205 228 209 193 173 181 208 210 200 225 230 303 302 173 185 180 186 215 241 268 273 273 291 300 295 307 296 297 327 316 309 307 305 299 298 322 338 315 312 317 313 311 287 269 271 269 271 276 282 290 296 301 301 298 297 296 295 292 294 296 298 297 305 307 304 303 299 297 295 292 290 289 289
210 202 218 207 209 173 200 208 193 214 227 194 203 229 243 211 203 189 208 243 277 277 287 298 291 303 292 296 338 309 298 304 320 317 320 340 339 317 300 314 330 330 331 297 266 260 253 251 257 265 271 275 279 279 280 281 282 283 284 286 288 287 290 292 300 306 306 303 299 296 292 288 285 284
213 216 222 226 191 183 204 227 236 200 215 220 193 208 210 204 207 188 219 249 264 291 295 290 295 282 304 307 310 294 307 322 322 330 343 336 323 314 322 335 329 325 316 312 306 284 260 253 254 254 255 260 264 269 270 272 274 275 275 275 272 273 274 281 287 296 304 308 307 300 298 297 297 295
200 208 214 246 226 169 206 232 258 298 302 289 277 276 231 220 187 222 237 215 268 280 284 292 294 295 304 294 288 299 339 332 326 327 333 330 323 327 332 329 324 312 308 307 303 296 289 274 260 259 260 258 262 266 268 269 268 269 270 270 267 259 266 272 277 279 285 291 299 306 304 301 298 293
213 193 204 211 232 188 190 219 229 246 239 235 267 288 293 276 234 221 187 198 236 260 290 287 286 296 297 278 291 326 335 323 323 320 316 316 320 328 331 330 316 310 308 305 299 300 297 283 279 281 271 262 261 263 267 269 271 269 268 268 268 266 264 263 264 273 277 277 279 281 286 289 287 286
223 204 190 204 207 208 201 204 217 220 230 228 213 224 243 266 286 266 201 248 279 281 276 280 272 281 275 280 307 347 322 324 321 310 307 319 328 330 337 321 316 313 310 308 313 310 310 304 294 289 273 262 259 261 265 271 273 270 267 265 264 264 264 261 263 267 266 266 266 268 270 271 272 276
232 233 207 193 202 205 201 207 208 217 232 228 223 229 239 243 252 253 253 253 254 253 259 271 287 273 280 306 331 327 328 325 306 299 309 328 325 325 322 319 317 315 315 316 312 305 326 335 315 293 284 264 252 257 264 267 267 266 264 263 262 263 261 261 262 261 260 262 262 260 262 262 263 268
228 228 227 220 203 210 207 203 207 216 225 234 245 254 260 266 266 266 250 250 266 268 273 270 268 282 284 330 319 325 334 307 312 320 323 314 318 318 321 317 314 313 311 307 306 326 336 313 301 290 278 274 272 277 266 263 261 261 265 267 266 258 253 255 256 255 255 255 255 254 253 253 257 261
213 217 222 214 215 212 211 206 209 206 214 201 217 215 219 225 232 234 238 250 256 267 272 275 283 281 293 318 309 333 328 311 310 323 324 317 324 321 316 308 317 312 308 314 321 331 316 305 298 289 284 278 282 282 294 292 270 265 269 268 260 252 251 251 251 249 250 250 249 250 251 252 257 254
229 221 214 219 218 212 209 214 210 212 191 203 209 218 214 226 232 241 237 241 254 257 264 281 285 293 306 301 330 324 315 316 312 315 333 315 312 315 312 310 304 305 315 313 320 318 314 304 300 292 290 288 293 293 292 299 360 348 320 289 267 254 250 246 244 244 248 252 255 258 255 246 244 256
218 225 228 223 222 225 222 213 210 168 159 185 201 197 162 280 323 301 285 263 270 282 280 273 284 295 284 288 308 299 300 308 309 324 331 315 314 311 303 300 301 313 309 319 314 309 305 298 289 285 305 308 328 315 329 352 338 342 332 321 309 282 256 249 249 250 249 250 254 256 260 263 258 252
215 214 221 225 230 223 217 204 185 179 189 194 211 221 215 204 198 246 273 275 267 272 274 272 275 267 280 286 311 296 307 304 314 322 318 310 317 325 326 317 312 296 332 313 308 302 299 288 283 298 308 324 333 335 333 335 342 336 330 320 311 301 289 275 265 260 257 257 258 258 259 258 256 253
213 217 213 210 218 214 198 194 183 195 199 204 212 220 226 229 228 220 221 239 255 252 266 274 266 275 269 288 291 289 298 298 311 306 310 314 324 321 314 305 302 306 320 309 303 295 291 283 291 303 319 330 335 331 334 342 341 331 321 315 309 303 292 279 273 270 265 263 262 263 260 254 249 247
212 204 207 215 214 231 204 197 192 190 206 213 217 222 227 230 228 230 229 228 232 240 253 257 268 255 270 274 265 272 289 298 296 312 312 318 313 306 299 294 300 301 302 295 293 291 291 304 307 322 320 327 332 334 336 336 326 316 311 309 310 308 306 292 277 269 265 263 263 261 259 254 251 249
215 214 207 206 217 213 207 184 195 199 196 199 218 228 231 230 231 230 229 230 231 229 232 243 253 256 234 252 262 273 278 285 299 316 302 306 302 296 289 293 289 287 288 277 274 284 308 312 327 321 325 337 331 331 324 320 313 311 308 308 308 307 302 294 284 276 269 267 264 266 264 259 253 250
207 210 215 218 217 209 205 193 187 196 209 215 207 207 219 222 224 225 226 225 222 218 224 231 240 247 241 249 257 254 254 302 299 297 291 291 286 283 286 281 274 280 283 285 308 301 305 321 317 322 332 332 321 319 315 312 315 315 312 308 305 301 290 283 283 281 280 274 271 273 275 274 268 259
213 209 209 215 220 221 223 216 203 202 198 204 223 228 215 211 219 227 225 216 209 210 212 219 227 230 225 228 233 234 264 279 285 290 292 294 286 290 292 292 300 289 280 294 305 292 305 312 328 322 327 328 315 312 307 311 314 314 313 309 305 302 287 287 289 285 278 273 274 276 277 276 275 267
218 214 212 212 215 217 223 222 208 206 200 219 223 231 243 244 234 228 232 206 203 207 210 214 220 221 218 217 233 253 247 239 245 283 290 277 278 288 292 292 293 287 299 299 287 310 306 331 335 321 319 318 305 303 310 314 318 320 316 311 308 304 291 296 296 289 277 281 286 290 287 287 275 260
222 220 214 212 217 219 219 216 205 198 198 216 222 233 247 254 255 254 244 247 210 210 208 213 217 217 223 233 246 255 266 267 240 198 249 260 276 276 279 284 289 299 305 290 4 347 294 317 328 312 304 305 290 298 303 314 320 321 316 309 305 302 308 312 311 294 288 302 315 298 301 292 269 245
221 224 220 217 214 219 221 216 197 196 193 211 220 227 238 249 251 247 235 243 209 189 214 232 231 245 232 239 251 258 256 253 240 216 233 250 244 267 273 284 301 302 287 280 18 337 305 327 309 313 314 304 295 261 309 320 323 321 312 308 313 312 321 314 310 294 287 288 301 321 310 287 229 234
212 219 223 216 212 216 222 207 188 193 194 205 217 210 228 241 249 245 242 244 261 198 198 213 216 231 228 231 239 244 243 241 238 227 224 226 233 247 265 282 288 283 292 293 336 315 296 299 297 300 281 297 311 320 326 318 327 318 317 319 312 326 323 316 306 277 285 293 336 317 301 253 234 274
219 215 215 224 200 209 218 213 192 188 200 206 211 213 223 231 210 57 355 343 74 127 172 210 220 235 239 243 245 241 233 237 237 233 218 216 220 239 262 275 277 281 282 288 305 308 289 299 289 293 272 241 269 308 316 317 321 319 322 316 310 331 319 312 299 298 302 83 291 285 286 269 264 263
220 224 221 217 197 201 211 215 203 197 198 207 211 223 225 219 111 328 25 329 329 203 216 235 243 246 249 253 252 236 221 222 229 234 230 216 223 229 238 251 270 281 284 285 291 282 284 280 264 270 273 275 282 278 311 320 317 321 319 314 309 296 314 334 338 313 309 181 239 222 230 225 218 236
222 221 225 228 207 196 207 210 205 199 202 203 217 222 225 237 176 165 248 246 250 244 238 237 250 250 250 261 261 252 235 229 229 237 231 226 224 241 250 255 253 260 270 276 271 266 255 263 258 261 282 273 287 302 309 319 319 321 317 320 322 324 335 355 331 336 310 283 253 207 216 225 229 237
240 267 311 3 147 192 202 205 203 203 201 208 215 215 225 238 248 248 251 250 245 250 250 249 253 254 249 253 257 252 235 224 224 233 236 233 240 253 259 258 259 256 262 265 269 265 260 258 271 267 255 244 265 303 308 300 299 313 313 320 324 326 325 324 331 334 258 285 296 152 249 226 236 222
38 58 44 28 40 146 194 203 209 216 220 229 228 213 222 231 240 235 236 242 244 244 243 246 251 253 247 243 250 250 224 210 214 235 248 241 241 245 251 252 252 256 261 267 263 258 248 244 249 264 234 167 215 274 283 295 309 310 319 326 331 332 320 334 330 345 338 287 291 235 233 230 216 205
294 311 37 50 55 70 73 109 151 197 207 207 213 221 217 222 226 225 229 233 234 243 245 249 250 251 252 249 256 243 205 207 224 220 239 248 255 255 268 277 276 270 269 270 271 267 255 247 244 205 245 275 235 274 279 300 307 311 321 335 327 307 314 331 336 335 343 335 303 281 260 215 201 187
264 277 235 172 189 139 154 161 142 175 138 154 188 216 221 224 226 224 223 228 235 242 247 252 254 256 253 257 260 235 199 218 222 203 232 245 258 261 264 276 281 285 282 284 283 271 198 161 142 132 204 265 279 250 307 315 308 318 331 335 333 325 321 325 339 333 337 331 329 306 305 352 22 40
258 261 266 226 173 160 161 188 206 210 204 207 203 214 219 226 229 227 230 238 241 246 245 255 259 262 255 256 256 235 215 225 223 207 227 235 254 251 263 271 279 285 286 281 282 253 165 135 148 151 200 206 263 34 33 322 316 330 328 333 328 323 319 330 332 333 333 335 335 337 313 46 53 24
224 231 244 252 258 247 243 240 230 222 217 221 222 228 233 232 224 218 220 230 238 240 241 245 245 253 255 256 254 239 228 224 224 211 228 236 241 247 241 271 278 280 282 283 295 284 217 178 187 183 124 79 85 97 62 327 321 324 338 337 333 325 324 322 325 327 337 339 333 328 317 53 50 28
207 202 205 213 221 223 220 229 231 230 223 228 230 233 235 234 224 214 215 226 234 233 234 242 246 251 252 257 249 238 224 233 228 223 219 236 225 234 252 265 275 276 272 278 298 302 257 192 203 121 92 92 88 63 51 342 303 327 343 348 334 325 320 318 318 321 340 328 316 321 328 46 29 23
204 227 229 219 205 211 218 221 224 217 222 227 235 238 224 209 216 219 223 222 220 227 234 236 240 244 243 246 240 235 226 226 230 230 227 224 218 223 247 264 274 277 283 287 284 277 277 185 171 137 119 103 65 65 32 24 305 327 339 344 333 326 320 318 314 315 328 324 316 314 326 41 40 11
199 219 231 243 247 235 226 222 220 226 232 236 235 238 239 223 199 212 228 227 226 235 235 237 240 242 244 242 237 220 219 218 231 229 234 223 216 228 241 262 273 279 279 271 269 278 296 258 148 112 77 27 346 329 219 23 2 340 341 331 343 335 323 316 315 309 323 328 329 344 346 352 15 1
198 228 244 250 248 245 260 265 255 234 227 234 232 220 235 232 196 214 229 223 228 231 229 234 241 239 240 233 217 211 206 204 230 229 234 225 223 230 255 262 265 268 280 297 308 312 293 270 173 126 117 105 53 304 302 170 6 9 1 4 346 344 326 318 314 312 320 309 332 2 342 337 346 339
219 224 229 237 244 252 260 269 277 281 293 299 282 276 177 200 232 234 224 216 220 219 220 223 235 239 242 207 191 211 214 218 221 229 225 214 217 235 247 257 270 290 304 311 320 305 298 266 169 110 118 130 164 268 289 252 147 49 347 72 30 332 331 322 317 323 329 330 341 335 357 337 331 270
226 231 232 243 246 245 252 250 244 243 241 240 233 214 220 234 238 245 234 225 221 221 216 214 220 220 221 208 191 199 215 216 220 225 222 211 209 222 237 253 286 316 338 322 313 302 293 352 79 93 111 151 187 214 209 272 262 172 296 52 84 349 337 325 313 312 325 330 331 299 233 218 317 167
223 224 231 235 235 230 232 236 239 234 238 238 239 232 228 233 234 234 243 231 221 222 221 216 204 197 201 195 188 207 225 228 225 220 217 214 211 221 235 261 297 332 318 300 295 288 301 108 145 134 180 182 214 223 161 148 130 137 134 18 77 105 306 329 323 324 327 335 319 315 298 214 273 210
210 210 220 219 225 226 226 234 242 247 242 244 247 251 247 246 250 259 268 259 242 253 264 202 174 191 207 184 193 211 230 224 225 225 226 222 215 215 226 251 276 257 265 276 279 280 291 170 178 173 118 130 59 63 54 30 10 39 357 204 203 104 101 308 318 343 336 319 316 304 322 329 312 271
187 206 218 217 222 228 229 232 244 255 259 257 263 271 274 268 258 271 276 274 273 272 271 252 220 206 211 197 200 210 223 205 207 225 228 228 227 215 221 225 230 248 248 256 272 285 314 157 164 172 146 115 87 59 37 61 334 323 324 55 36 169 222 243 277 74 25 1 350 348 336 336 360 351
268 325 346 14 31 10 360 340 343 345 334 326 316 312 316 311 317 319 316 312 326 304 257 221 221 249 272 230 221 215 190 192 198 221 232 230 222 220 215 212 221 241 266 290 305 307 313 277 210 200 147 116 131 107 100 53 232 171 5 41 351 313 227 224 267 316 57 46 37 11 286 290 314 308
14 11 12 19 17 12 356 358 354 358 352 348 343 341 337 340 337 333 334 329 341 358 6 342 245 206 218 251 250 173 152 190 203 221 233 229 223 219 204 219 223 319 305 304 307 305 303 308 294 165 126 136 146 134 133 115 48 95 81 78 310 313 324 330 295 302 318 39 26 5 329 292 256 260
7 12 26 21 8 358 359 2 359 347 345 336 335 331 337 343 343 346 344 356 1 4 1 342 324 292 176 253 221 205 200 190 207 222 229 227 216 209 206 201 233 265 277 271 285 291 304 305 299 243 137 156 178 154 134 122 130 119 149 174 281 306 334 3 331 329 332 360 17 10 339 333 336 17